Port de Québec

Opérations

Carcy img 9181

Dernière mise à jour le : samedi 21 octobre 2017 20:58

Navires au Port

Poste Nom du navire C-1836 H.P.D Nat. L.H.T. J.B.E Agent Orig. Dest. C/D Remarques
14 GC 03 56944 CA 17.8 57 PECA QBC QBC Attente
14 CAPORAL KAEBLE V.C. 57355 CA 39.65 253 PECA QBC QBC Attente
17 JERRY G 57348 CA 27.95 202 REMQU ICD ACF Attente
17 OCEAN IROQUOIS 57353 CA 11.58 2 GROCE TRV ACF Attente
17 OMNI ATLAS 56802 CA 40.6 479 GROCE QBC QBC Attente
17 ANDRE H 54502 CA 38.41 317 TRR BCO ACF Attente
19 NORDIK EXPRESS 54716 CA 67.04 1 DESG RKI QBC Attente
19 LAC ST-FRANCOIS 55258 2017-10-21 22:22 CA 59.43 682 GROCE QBC QBC Attente
19 ECRC-SIMEC 300 56816 2017-10-31 11:11 CA 58.23 916 GROCE ICD QBC Attente
20 OCEAN TAIGA 56687 CA 36.0 710 GROCE GIL ACF Attente
20 OCEAN K. RUSBY 56619 CA 30.8 402 GROCE ICD ACF EN SERVICE
20 OCEAN DELTA 55969 CA 41.67 722 GROCE TRV ACF Attente
20 OCEAN CARTIER 57087 CA 29.5 350 GROCE ICD ACF Attente
20 OCEAN BERTRAND JEANSONNE 56895 CA 30.48 402 GROCE TRV ACF EN SERVICE
20 BASSE COTE 56246 CA 64.0 919 GROCE GIL QBC Attente
20 BARGE OCEAN BASQUE I 57204 CA 31.53 452 GROCE TAD ACF Attente
20 ORLEANS 56513 CA 62.91 768 COPIM QBC QBC Attente
20 RADIUM 607 55743 CA 45.72 320 GROCE QBC ACF Attente
20 RADIUM 603 56850 CA 45.72 319 GROCE TRV ACF Attente
26 ETHAN 55751 TZ 108.26 4 RG QBC QBC Attente
26 SILVER WHISPER 57368 2017-10-22 06:30 BS 186.0 28 RG SGY TRV Croisière
27 CARILLONS 56886 CA 19.81 9 BEPR MAT ACF Attente
27 TORONTO 401 56901 CA 91.44 3 BEPR HAM ACF Attente
27 MAROUDIO 57365 2017-10-29 11:11 MH 189.99 31 LSL ML QBC D En attente
29 DOVER LIGHT 56512 CA 38.8 695 COPIM QBC QBC Attente
31 LUCIEN L 57330 2017-11-09 11:11 CA 67.32 785 ST SOR SOR Services portuaires
52 NORD SUN 57360 2017-10-22 11:45 SG 228.99 43 MCA PAL LSS C Vrac solide
53 OSOGOVO 57369 2017-10-22 00:01 MT 186.0 19 LSL SW CON D Vrac solide
73 ASTERIX 55252 LR 182.46 18 MTL QBC ACF Services portuaires
77 ARMAND IMBEAU II 55448 CA 92.0 5 ST LOZ QBC Services portuaires
101 DES GROSEILLIERS 57285 2017-10-25 11:11 CA 98.25 6 PECA LAB ACF Divers
103 SEDNA DESGAGNES 57361 2017-10-22 22:22 CA 139.0 9 DESG PIM TRV C Cargo divers
106 FUNDY PARADISE 48628 2017-12-15 11:11 CA 97.85 3 MARIS TRV QBC Attente

Dernière mise à jour le : samedi 21 octobre 2017 20:58

Navires attendus

Poste Nom du navire Réserv. H.P.A. Nat. L.H.T. J.B.E Agent Orig. Dest. C/D Remarques
51 ALGOMA TRANSPORT 69919 2017-10-22 00:30 CA 222.59 23 ALGOM SOO QBC D Divers
105 SEAHORSE 69838 2017-10-22 04:00 MM 172.52 16 LSL ACF ACF D Vrac solide
53 FEDERAL WESER 69842 2017-10-22 12:00 CY 199.91 22 LSL SOR C Vrac solide
52 ALGOMA TRANSPORT 69920 2017-10-22 14:00 CA 222.59 23 ALGOM QBC ACF C Vrac solide
18 TIM S. DOOL 69915 2017-10-22 17:00 CA 222.51 18 ALGOM HAM D Vrac solide
87 LAURENTIA DESGAGNES 69917 2017-10-22 17:00 CA 228.6 42 PETRO MTL MTL D Pétrole brut
20 OCEAN HENRY BAIN 69985 2017-10-22 22:22 CA 30.8 402 GROCE MEC Attente
20 OCEAN TUNDRA 69984 2017-10-22 22:22 CA 36.0 719 GROCE MEC Attente
21 SEABOURN QUEST 65204 2017-10-23 08:00 BS 198.19 32 RG MTL IDL Croisière
31 LAC ST-FRANCOIS 69937 2017-10-23 11:11 CA 59.43 682 GROCE QBC ACF Attente
53 CSL NIAGARA 69921 2017-10-24 00:00 CA 225.5 23 CSL D Divers
53 AM CONTRECOEUR 69776 2017-10-24 06:00 PA 229.0 43 LSL BZ D Vrac solide
30 SILVER WHISPER 65486 2017-10-24 08:00 BS 186.0 28 RG MTL SGY Croisière
22 CROWN PRINCESS ZCDM6 65226 2017-10-24 11:00 BM 288.63 113 RG CHN SGY Croisière
86 DARA DESGAGNÉS 69907 2017-10-24 16:00 CA 123.72 6 PETRO MTL SEP C Vrac liquide
87 MINERVA GLORIA 69983 2017-10-24 18:00 GR 248.964 61 LSL C Divers
107 SALARIUM 69814 2017-10-25 00:00 CA 222.46 21 CSL IDL D Sel
107 BLUEBILL 69967 2017-10-25 00:00 CY 199.9 22 LSL TAM CON D
53 H. LEE WHITE 69922 2017-10-25 04:30 US 214.56 21 RG D Divers
21 VICTORY ONE 68074 2017-10-25 08:00 BS 87.26 4 MCKE Croisière
28 CLIPPER BREEZE 69938 2017-10-25 12:00 SG 179.9 23 NATRA PAL IT C Vrac solide
86 ESPADA DESGAGNES 69944 2017-10-25 12:00 CA 228.6 42 PETRO MTL MTL D Pétrole brut
30 NORWEGIAN GEM 66082 2017-10-25 13:00 BS 294.13 93 MCKE HLX CBK Croisière
1 LA MARJOLAINE 69876 2017-10-26 00:00 CA 28.29 399 PRSAG SGY SGY Hivernage
105 THUNDER BAY CFN6288 69925 2017-10-26 00:00 CA 225.46 24 CSL C Vrac solide
87 CAP JEAN 69945 2017-10-26 02:00 GR 274.06 81 OT D Pétrole brut
21 SEVEN SEAS MARINER 66035 2017-10-26 08:00 BS 216.0 48 MCKE SGY MTL Croisière
28 THISSEAS 69895 2017-10-27 06:00 LR 225.0 41 NATRA GIB TU C Vrac solide
51 HIGH EFFICIENCY 69941 2017-10-27 10:00 PA 179.9 28 RG MTL D Vrac liquide
21 SEVEN SEAS MARINER 66036 2017-10-28 08:00 BS 216.0 48 MCKE MTL SYD Croisière
50 FEDERAL YOSHINO 69942 2017-10-28 11:11 MH 190.43 19 MTL KRI C Vrac solide
51 MAROUDIO 69851 2017-10-28 11:11 MH 189.99 31 LSL QBC ACF C Vrac solide
18 SPRUCE GLEN 69833 2017-10-29 00:00 CA 222.54 22 CSL D Vrac solide
52 CAPE AMERICA 69923 2017-10-29 00:00 SG 299.84 99 C Divers
102 USCGC NEAH BAY 69845 2017-10-29 00:00 US 42.6 60 LSL CHN Attente
28 AOM MILENA 69896 2017-10-30 00:00 PA 224.394 39 NATRA C Vrac solide
105 TUFTY 69892 2017-10-30 22:22 CY 185.14 19 LSL TOR D Vrac solide
18 ALGOMA STRONGFIELD 69914 2017-10-31 00:00 CA 225.55 24 ALGOM D Vrac solide
28 BW BARLEY 69940 2017-10-31 00:00 IM 229.0 44 SCIND C Vrac solide
29 BAIE COMEAU 69834 2017-10-31 00:00 CA 225.5 24 CSL D Vrac solide
50 ADFINES SUN 69911 2017-11-01 00:00 MT 161.68 13 ACF ACF D Vrac liquide
50 EAST COAST 69963 2017-11-02 00:00 CA 182.6 23 D Vrac liquide
52 ALGOSTEEL 69927 2017-11-02 00:00 CA 222.49 18 ALGOM QBC C Vrac solide
53 ALGOSTEEL 69924 2017-11-02 00:00 CA 222.49 18 ALGOM QBC D Divers
50 PIGEON POINT 69909 2017-11-02 02:00 IM 186.0 29 LSL CPK D Vrac liquide
50 ALGOCANADA 69928 2017-11-02 11:11 CA 129.84 8 ALGO ACF ACF C Vrac liquide
52 FRONTIER AMBITION 69968 2017-11-02 22:00 PA 288.93 90 MCA C Vrac solide
53 SEVERNAYA ZEMLYA 69817 2017-11-02 23:59 RU 180.5 15 LSL ITE D Vrac solide
53 THEODORE JR 69835 2017-11-03 20:00 PA 228.99 43 LSL D Vrac solide
50 TAMBOURIN 69964 2017-11-04 00:00 LR 182.74 26 D Vrac liquide
53 AFRICAN KALMIA 69893 2017-11-07 00:00 LR 175.0 19 LSL JA D Vrac solide
27 A ETRE CONFIRME 69161 2017-11-16 00:00 CA 0.0 1 MARIO D En attente
18 OAKGLEN 69935 2017-11-22 00:00 CA 222.49 22 CSL D Vrac solide
29 BAIE ST PAUL 69913 2017-11-27 00:00 CA 225.5 24 CSL D Vrac solide
31 PETER FRASER 69885 2017-12-05 00:00 CA 33.6 292 ST ILV ILV Hivernage
31 GRUE DES ILES 69884 2017-12-10 00:00 CA 47.5 477 ST MMY MMY Hivernage
104 PIERRE RADISSON 69888 2017-12-10 00:00 CA 98.33 5 PECA Attente
106 ALPHONSE DESJARDINS 69887 2017-12-10 00:00 CA 60.93 1 ST QBC QBC Attente
17 JEAN JOSEPH 69879 2017-12-12 00:00 CA 78.59 1 GRRM Hivernage
999 ARGENTIA DESGAGNES 69890 2017-12-12 00:00 CA 119.24 6 NAVIG Hivernage
19 NORDIK EXPRESS 69878 2017-12-15 00:00 CA 67.04 1 DESG QBC Hivernage
27 DES GROSEILLIERS 68766 2017-12-15 00:00 CA 98.25 6 PECA QBC QBC Hivernage
29 FUNDY PARADISE 69886 2017-12-15 00:00 CA 97.85 3 MARIS QBC Hivernage
30 BAIE COMEAU 69881 2017-12-15 00:00 CA 225.5 24 CSL Hivernage
31 FELIX ANTOINE SAVARD 69882 2017-12-15 00:00 CA 83.0 2 ST Hivernage
31 RADISSON 69883 2017-12-15 00:00 CA 53.66 1 ST Hivernage
14 DOVER LIGHT 69877 2018-01-01 00:00 CA 38.8 695 COPIM QBC QBC Hivernage
14 TRANS ST LAURENT 69668 2018-01-20 00:00 CA 76.08 2 TRLSS Hivernage
999 BELLA DESGAGNES 69902 2018-02-01 00:00 CA 97.1 6 DESG Hivernage

Dernières données reçues:
2017/10/21 à 20:10

Conditions climatiques
Caméra Web Heure locale

Québec

Marée

Descendante

Prochaine marée
Basse

04:15

Haute

08:45

Température
samedi 21 octobre

Température actuelle

10C

Nuit partiellement dégagée

MAX / 13 MIN / 7

Lever 07:12 AM  Coucher 05:48 PM

dimanche 22 octobre

Journée partiellement dégagée

MAX / 17 MIN / 8

Lever 07:13 AM  Coucher 05:46 PM

Vent

NE 10 km/h (5 kts)

Humidité

76%

Pression

102.6kPa

Température de l'eau

14.1C (57.3F)

FermerFermer

Accueil > Opérations > Opérations > Navires au port